Butler, PA

3:44 PM EDT on May 26, 2017 (GMT -0400)
Butler County-Scholter

Weather History for KBTP - November, 2013

Change the Weather History Date:

Tuesday, November 5, 2013

  Actual Average Record
Temperature  
Mean Temperature 46 °F -  
Max Temperature 57 °F 51 °F 77 °F (1987)
Min Temperature 35 °F 35 °F 10 °F (1991)
Degree Days  
Heating Degree Days 19    
Moisture  
Dew Point 26 °F    
Average Humidity 49    
Maximum Humidity 60    
Minimum Humidity 36    
Precipitation  
Precipitation 0.00 in - - ()
Sea Level Pressure  
Sea Level Pressure 30.44 in    
Wind  
Wind Speed 6 mph (ESE)    
Max Wind Speed 12 mph    
Max Gust Speed -    
Visibility 10 miles    
Events      
Averages and records for this station are not official NWS values.
T = Trace of Precipitation, MM = Missing Value Source: NWS Daily Summary

Daily Weather History Graph

Daily Weather History Graph

Search for Another Location

Airport or City:

Trip Planner

Search our weather history database for the weather conditions in past years. The results will help you decide how hot, cold, wet, or windy it might be!

Date:

Astronomy

Nov. 05, 2013 Rise Set
Actual Time 6:55 AM EST 5:11 PM EST
Civil Twilight 6:26 AM EST 5:39 PM EST
Nautical Twilight 5:53 AM EST 6:12 PM EST
Astronomical Twilight 5:21 AM EST 6:44 PM EST
Moon 9:09 AM EST (11/5) 7:10 PM EST (11/5)
Length of Visible Light 11h 13m
Length of Day
10h 15m
Waxing Crescent, 6% of the Moon is Illuminated
Nov 5
Waxing Crescent
Nov 10
First Quarter
Nov 17
Full
Nov 25
Last Quarter
Dec 2
New

Hourly Weather History & Observations

Time (EST) Temp. Windchill Dew Point Humidity Pressure Visibility Wind Dir Wind Speed Gust Speed Precip Events Conditions
12:15 AM 37.4 °F 32.8 °F 19.4 °F 48% 30.46 in 10.0 mi ESE 5.8 mph - N/A   Clear
12:35 AM 37.4 °F 32.1 °F 21.2 °F 52% 30.45 in 10.0 mi East 6.9 mph - N/A   Clear
12:55 AM 37.4 °F 32.8 °F 19.4 °F 48% 30.45 in 10.0 mi ESE 5.8 mph - N/A   Clear
1:15 AM 37.4 °F 32.8 °F 21.2 °F 52% 30.45 in 10.0 mi ESE 5.8 mph - N/A   Clear
1:35 AM 37.4 °F 33.8 °F 21.2 °F 52% 30.46 in 10.0 mi East 4.6 mph - N/A   Clear
1:55 AM 37.4 °F 33.8 °F 21.2 °F 52% 30.45 in 10.0 mi East 4.6 mph - N/A   Clear
2:15 AM 37.4 °F 32.1 °F 21.2 °F 52% 30.44 in 10.0 mi East 6.9 mph - N/A   Clear
2:35 AM 37.4 °F 34.9 °F 21.2 °F 52% 30.45 in 10.0 mi SE 3.5 mph - N/A   Clear
2:55 AM 37.4 °F 33.8 °F 21.2 °F 52% 30.46 in 10.0 mi ESE 4.6 mph - N/A   Clear
3:15 AM 35.6 °F - 21.2 °F 56% 30.47 in 10.0 mi Calm Calm - N/A   Clear
3:35 AM 35.6 °F 32.8 °F 23.0 °F 60% 30.46 in 10.0 mi ESE 3.5 mph - N/A   Clear
3:55 AM 37.4 °F 32.8 °F 23.0 °F 56% 30.46 in 10.0 mi East 5.8 mph - N/A   Clear
4:15 AM 35.6 °F 29.9 °F 23.0 °F 60% 30.46 in 10.0 mi East 6.9 mph - N/A   Clear
4:35 AM 37.4 °F 32.8 °F 21.2 °F 52% 30.47 in 10.0 mi ESE 5.8 mph - N/A   Clear
4:55 AM 37.4 °F 33.8 °F 23.0 °F 56% 30.47 in 10.0 mi East 4.6 mph - N/A   Clear
5:15 AM 37.4 °F 32.8 °F 23.0 °F 56% 30.47 in 10.0 mi ESE 5.8 mph - N/A   Clear
5:35 AM 37.4 °F 32.8 °F 23.0 °F 56% 30.47 in 10.0 mi East 5.8 mph - N/A   Clear
5:55 AM 35.6 °F 31.7 °F 23.0 °F 60% 30.47 in 10.0 mi ESE 4.6 mph - N/A   Clear
6:15 AM 37.4 °F 32.8 °F 23.0 °F 56% 30.48 in 10.0 mi ESE 5.8 mph - N/A   Clear
6:35 AM 37.4 °F 32.1 °F 23.0 °F 56% 30.49 in 10.0 mi ESE 6.9 mph - N/A   Clear
6:55 AM 37.4 °F 32.1 °F 23.0 °F 56% 30.48 in 10.0 mi East 6.9 mph - N/A   Clear
7:15 AM 37.4 °F 32.8 °F 24.8 °F 60% 30.47 in 10.0 mi East 5.8 mph - N/A   Clear
7:35 AM 37.4 °F 32.8 °F 24.8 °F 60% 30.49 in 10.0 mi ESE 5.8 mph - N/A   Scattered Clouds
7:55 AM 37.4 °F 34.9 °F 24.8 °F 60% 30.51 in 10.0 mi ESE 3.5 mph - N/A   Scattered Clouds
8:15 AM 39.2 °F 37.0 °F 24.8 °F 56% 30.51 in 10.0 mi ESE 3.5 mph - N/A   Partly Cloudy
8:35 AM 39.2 °F 35.9 °F 24.8 °F 56% 30.51 in 10.0 mi ESE 4.6 mph - N/A   Clear
8:55 AM 41.0 °F 36.4 °F 26.6 °F 57% 30.50 in 10.0 mi East 6.9 mph - N/A   Clear
9:15 AM 41.0 °F 37.1 °F 24.8 °F 53% 30.51 in 10.0 mi ESE 5.8 mph - N/A   Clear
9:35 AM 42.8 °F 36.6 °F 26.6 °F 53% 30.48 in 10.0 mi ESE 11.5 mph - N/A   Clear
9:55 AM 44.6 °F 40.7 °F 26.6 °F 49% 30.50 in 10.0 mi SE 6.9 mph - N/A   Clear
10:15 AM 46.4 °F 41.9 °F 26.6 °F 46% 30.49 in 10.0 mi SSE 9.2 mph - N/A   Clear
10:35 AM 46.4 °F 43.5 °F 26.6 °F 46% 30.49 in 10.0 mi ESE 5.8 mph - N/A   Clear
10:55 AM 46.4 °F 41.9 °F 28.4 °F 50% 30.47 in 10.0 mi SE 9.2 mph - N/A   Clear
11:15 AM 48.2 °F - 28.4 °F 46% 30.48 in 10.0 mi ESE 5.8 mph - N/A   Clear
11:35 AM 50.0 °F - 28.4 °F 43% 30.48 in 10.0 mi SE 4.6 mph - N/A   Clear
11:55 AM 51.8 °F - 30.2 °F 44% 30.47 in 10.0 mi SE 4.6 mph - N/A   Clear
12:15 PM 53.6 °F - 30.2 °F 41% 30.47 in 10.0 mi ESE 5.8 mph - N/A   Clear
12:35 PM 53.6 °F - 30.2 °F 41% 30.46 in 10.0 mi South 5.8 mph - N/A   Clear
12:55 PM 55.4 °F - 32.0 °F 41% 30.44 in 10.0 mi ESE 6.9 mph - N/A   Clear
1:15 PM 55.4 °F - 30.2 °F 38% 30.44 in 10.0 mi South 8.1 mph - N/A   Clear
1:35 PM 55.4 °F - 30.2 °F 38% 30.44 in 10.0 mi South 5.8 mph - N/A   Clear
1:55 PM 55.4 °F - 30.2 °F 38% 30.43 in 10.0 mi South 9.2 mph - N/A   Clear
2:15 PM 57.2 °F - 30.2 °F 36% 30.43 in 10.0 mi SSE 8.1 mph - N/A   Clear
2:35 PM 55.4 °F - 30.2 °F 38% 30.42 in 10.0 mi South 6.9 mph - N/A   Clear
2:55 PM 55.4 °F - 30.2 °F 38% 30.42 in 10.0 mi SE 6.9 mph - N/A   Clear
3:15 PM 55.4 °F - 30.2 °F 38% 30.41 in 10.0 mi SE 8.1 mph - N/A   Clear
3:35 PM 55.4 °F - 30.2 °F 38% 30.41 in 10.0 mi SE 8.1 mph - N/A   Clear
3:55 PM 53.6 °F - 30.2 °F 41% 30.43 in 10.0 mi SSE 3.5 mph - N/A   Clear
4:15 PM 53.6 °F - 30.2 °F 41% 30.41 in 10.0 mi ESE 5.8 mph - N/A   Clear
4:35 PM 53.6 °F - 30.2 °F 41% 30.41 in 10.0 mi ESE 6.9 mph - N/A   Clear
4:55 PM 51.8 °F - 30.2 °F 44% 30.40 in 10.0 mi ESE 6.9 mph - N/A   Clear
5:15 PM 51.8 °F - 30.2 °F 44% 30.41 in 10.0 mi SE 4.6 mph - N/A   Partly Cloudy
5:35 PM 51.8 °F - 30.2 °F 44% 30.41 in 10.0 mi East 8.1 mph - N/A   Clear
5:55 PM 51.8 °F - 30.2 °F 44% 30.41 in 10.0 mi East 6.9 mph - N/A   Clear
6:15 PM 50.0 °F - 30.2 °F 47% 30.41 in 10.0 mi ESE 6.9 mph - N/A   Clear
6:35 PM 50.0 °F - 28.4 °F 43% 30.41 in 10.0 mi East 8.1 mph - N/A   Clear
6:55 PM 50.0 °F - 28.4 °F 43% 30.40 in 10.0 mi East 8.1 mph - N/A   Partly Cloudy
7:15 PM 48.2 °F - 28.4 °F 46% 30.40 in 10.0 mi East 8.1 mph - N/A   Clear
7:35 PM 48.2 °F - 26.6 °F 43% 30.39 in 10.0 mi ESE 8.1 mph - N/A   Clear
7:55 PM 46.4 °F 42.9 °F 26.6 °F 46% 30.39 in 10.0 mi ESE 6.9 mph - N/A   Clear
8:15 PM 44.6 °F 40.7 °F 26.6 °F 49% 30.38 in 10.0 mi ESE 6.9 mph - N/A   Clear
8:35 PM 46.4 °F 42.4 °F 26.6 °F 46% 30.36 in 10.0 mi ESE 8.1 mph - N/A   Clear
8:55 PM 46.4 °F 41.9 °F 24.8 °F 43% 30.35 in 10.0 mi East 9.2 mph - N/A   Clear
9:15 PM 44.6 °F 42.2 °F 24.8 °F 46% 30.36 in 10.0 mi East 4.6 mph - N/A   Clear
9:35 PM 44.6 °F 42.2 °F 26.6 °F 49% 30.37 in 10.0 mi East 4.6 mph - N/A   Clear
9:55 PM 42.8 °F 39.3 °F 24.8 °F 49% 30.38 in 10.0 mi East 5.8 mph - N/A   Clear
10:15 PM 42.8 °F 40.1 °F 24.8 °F 49% 30.37 in 10.0 mi ESE 4.6 mph - N/A   Clear
10:35 PM 42.8 °F 40.1 °F 24.8 °F 49% 30.36 in 10.0 mi East 4.6 mph - N/A   Clear
10:55 PM 41.0 °F 39.0 °F 24.8 °F 53% 30.36 in 10.0 mi SE 3.5 mph - N/A   Clear
11:15 PM 39.2 °F 35.9 °F 24.8 °F 56% 30.36 in 10.0 mi East 4.6 mph - N/A   Clear
11:35 PM 39.2 °F 35.0 °F 24.8 °F 56% 30.36 in 10.0 mi ESE 5.8 mph - N/A   Clear
11:55 PM 39.2 °F 34.2 °F 24.8 °F 56% 30.35 in 10.0 mi ESE 6.9 mph - N/A   Clear